Casablanca, Morocco

6:47 PM WEST on September 27, 2016 (GMT +0100)
Anfa

Weather History for GMMC - January, 2013

Change the Weather History Date:

Saturday, January 5, 2013

  Actual Average (GMMN) Record (GMMN)
Temperature  
Mean Temperature 58 °F -  
Max Temperature 68 °F 63 °F 77 °F (1999)
Min Temperature 48 °F 43 °F 35 °F (2005)
Degree Days  
Heating Degree Days 7    
Growing Degree Days 8 (Base 50)    
Moisture  
Dew Point 47 °F    
Average Humidity 67    
Maximum Humidity 88    
Minimum Humidity 38    
Precipitation  
Precipitation 0.00 in - - ()
Sea Level Pressure  
Sea Level Pressure 30.45 in    
Wind  
Wind Speed 3 mph ()    
Max Wind Speed 5 mph    
Max Gust Speed -    
Visibility 6.0 miles    
Events      
Averages and records for this station are not official NWS values.
T = Trace of Precipitation, MM = Missing Value Source: Averaged Metar Reports

Daily Weather History Graph

Daily Weather History Graph

Search for Another Location

Airport or City:

Trip Planner

Search our weather history database for the weather conditions in past years. The results will help you decide how hot, cold, wet, or windy it might be!

Date:

Astronomy

Jan. 05, 2013 Rise Set
Actual Time 7:35 AM WET 5:36 PM WET
Civil Twilight 7:08 AM WET 6:04 PM WET
Nautical Twilight 6:37 AM WET 6:35 PM WET
Astronomical Twilight 6:07 AM WET 7:05 PM WET
Moon 12:37 AM WET (1/5) 12:09 PM WET (1/5)
Length of Visible Light 10h 55m
Length of Day
10h 01m
Waning Gibbous, 46% of the Moon is Illuminated
Jan 5
Waning Gibbous
Jan 11
New
Jan 18
First Quarter
Jan 27
Full
Feb 3
Last Quarter

Hourly Weather History & Observations

Time (WET) Temp. Dew Point Humidity Pressure Visibility Wind Dir Wind Speed Gust Speed Precip Events Conditions
12:00 AM 54 °F 47 °F 68% 30.50 in 6 mi SSW 3.5 mph - -  
2:00 AM 51.8 °F 46.4 °F 82% 30.45 in - SSW 3.5 mph - N/A   Clear
3:00 AM 52 °F 46 °F 72% 30.50 in 6 mi South 4.6 mph - -  
3:00 AM 51.8 °F 46.4 °F 82% 30.45 in - South 4.6 mph - N/A   Clear
4:00 AM 51.8 °F 44.6 °F 76% 30.45 in - SSW 3.5 mph - N/A   Clear
5:00 AM 50.0 °F 44.6 °F 82% 30.42 in - South 3.5 mph - N/A   Clear
6:00 AM 50.0 °F 44.6 °F 82% 30.42 in - SSW 3.5 mph - N/A   Clear
7:00 AM 48.2 °F 42.8 °F 82% 30.42 in - South 3.5 mph - N/A   Clear
8:00 AM 48.2 °F 42.8 °F 82% 30.42 in - SSW 2.3 mph - N/A   Clear
9:00 AM 52 °F 44 °F 66% 30.50 in 6 mi SSW 4.6 mph - -  
9:00 AM 51.8 °F 44.6 °F 76% 30.42 in - SSW 4.6 mph - N/A   Clear
10:00 AM 57.2 °F 44.6 °F 63% 30.48 in - South 4.6 mph - N/A   Clear
11:00 AM 62.6 °F 46.4 °F 55% 30.48 in - SE 2.3 mph - N/A   Clear
12:00 PM 65 °F 47 °F 41% 30.50 in 6 mi East 4.6 mph - -  
12:00 PM 66.2 °F 46.4 °F 49% 30.45 in - East 4.6 mph - N/A   Clear
1:00 PM 68.0 °F 46.4 °F 46% 30.45 in - East 4.6 mph - N/A   Clear
2:00 PM 68.0 °F 48.2 °F 49% 30.42 in - NE 4.6 mph - N/A   Clear
3:00 PM 67 °F 47 °F 38% 30.45 in 6 mi NE 4.6 mph - -  
3:00 PM 68.0 °F 46.4 °F 46% 30.42 in - NE 4.6 mph - N/A   Clear
4:00 PM 66.2 °F 46.4 °F 49% 30.42 in - NE 4.6 mph - N/A   Clear
5:00 PM 64.4 °F 46.4 °F 52% 30.42 in - NNE 4.6 mph - N/A   Clear
6:00 PM 62 °F 52 °F 61% 30.46 in 6 mi North 2.3 mph - -  
6:00 PM 62.6 °F 51.8 °F 68% 30.42 in - North 2.3 mph - N/A   Clear
7:00 PM 59.0 °F 51.8 °F 77% 30.42 in - North 2.3 mph - N/A   Clear
8:00 PM 57.2 °F 50.0 °F 77% 30.42 in - Calm Calm - N/A   Clear
9:00 PM 56 °F 51 °F 77% 30.49 in 6 mi SSE 2.3 mph - -  
9:00 PM 57.2 °F 51.8 °F 82% 30.45 in - SSE 2.3 mph - N/A   Clear
10:00 PM 55.4 °F 51.8 °F 88% 30.45 in - SSW 2.3 mph - N/A   Clear
11:00 PM 55.4 °F 51.8 °F 88% 30.45 in - SSW 3.5 mph - N/A   Clear